Claremore, OK

12:13 AM CST on February 21, 2017 (GMT -0600)
Claremore Regional

Weather History for KGCM - August, 2014

Change the Weather History Date:

Friday, August 15, 2014

  Actual Average (KTUL) Record (KTUL)
Temperature  
Mean Temperature 78 °F -  
Max Temperature 87 °F 93 °F 109 °F (1936)
Min Temperature 68 °F 71 °F 53 °F (1994)
Cooling Degree Days 12    
Growing Degree Days 28 (Base 50)    
Moisture  
Dew Point 66 °F    
Average Humidity 71    
Maximum Humidity 88    
Minimum Humidity 49    
Precipitation  
Precipitation 0.00 in - - ()
Sea Level Pressure  
Sea Level Pressure 29.99 in    
Wind  
Wind Speed 8 mph (South)    
Max Wind Speed 16 mph    
Max Gust Speed 22 mph    
Visibility 10 miles    
Events      
Averages and records for this station are not official NWS values.
T = Trace of Precipitation, MM = Missing Value Source: NWS Daily Summary

Daily Weather History Graph

Daily Weather History Graph

Search for Another Location

Airport or City:

Trip Planner

Search our weather history database for the weather conditions in past years. The results will help you decide how hot, cold, wet, or windy it might be!

Date:

Astronomy

Aug. 15, 2014 Rise Set
Actual Time 6:39 AM CDT 8:12 PM CDT
Civil Twilight 6:12 AM CDT 8:39 PM CDT
Nautical Twilight 5:39 AM CDT 9:12 PM CDT
Astronomical Twilight 5:05 AM CDT 9:46 PM CDT
Moon 11:27 PM CDT (8/15) 12:12 PM CDT (8/15)
Length of Visible Light 14h 26m
Length of Day
13h 32m
Waning Gibbous, 69% of the Moon is Illuminated
Aug 15
Waning Gibbous
Aug 17
Last Quarter
Aug 25
New
Sep 2
First Quarter
Sep 8
Full

Hourly Weather History & Observations

Time (CDT) Temp. Heat Index Dew Point Humidity Pressure Visibility Wind Dir Wind Speed Gust Speed Precip Events Conditions
12:15 AM 71.6 °F - 64.4 °F 78% 30.02 in 10.0 mi SE 5.8 mph - N/A   Clear
12:35 AM 71.6 °F - 64.4 °F 78% 30.02 in 10.0 mi SE 6.9 mph - N/A   Clear
12:55 AM 71.6 °F - 64.4 °F 78% 30.02 in 10.0 mi SSE 4.6 mph - N/A   Clear
1:15 AM 69.8 °F - 64.4 °F 83% 30.02 in 10.0 mi SSE 3.5 mph - N/A   Clear
1:35 AM 69.8 °F - 64.4 °F 83% 30.02 in 10.0 mi SSE 5.8 mph - N/A   Clear
1:55 AM 69.8 °F - 64.4 °F 83% 30.01 in 10.0 mi SSE 5.8 mph - N/A   Clear
2:15 AM 69.8 °F - 64.4 °F 83% 30.00 in 10.0 mi SE 5.8 mph - N/A   Clear
2:35 AM 69.8 °F - 64.4 °F 83% 30.00 in 10.0 mi SSE 4.6 mph - N/A   Clear
2:55 AM 68.0 °F - 64.4 °F 88% 30.00 in 10.0 mi SSE 5.8 mph - N/A   Clear
3:15 AM 69.8 °F - 64.4 °F 83% 30.01 in 10.0 mi SSE 5.8 mph - N/A   Clear
3:35 AM 68.0 °F - 64.4 °F 88% 30.01 in 10.0 mi SE 4.6 mph - N/A   Clear
3:55 AM 68.0 °F - 64.4 °F 88% 30.01 in 10.0 mi Calm Calm - N/A   Clear
4:15 AM 68.0 °F - 64.4 °F 88% 30.01 in 10.0 mi SSE 3.5 mph - N/A   Clear
4:35 AM 68.0 °F - 64.4 °F 88% 30.01 in 10.0 mi SSE 4.6 mph - N/A   Clear
4:55 AM 68.0 °F - 64.4 °F 88% 30.01 in 10.0 mi SSE 3.5 mph - N/A   Clear
5:15 AM 68.0 °F - 64.4 °F 88% 30.01 in 10.0 mi SSE 4.6 mph - N/A   Clear
5:35 AM 68.0 °F - 64.4 °F 88% 30.01 in 10.0 mi South 4.6 mph - N/A   Clear
5:55 AM 68.0 °F - 64.4 °F 88% 30.02 in 10.0 mi Calm Calm - N/A   Clear
6:15 AM 68.0 °F - 64.4 °F 88% 30.02 in 10.0 mi South 3.5 mph - N/A   Clear
6:35 AM 68.0 °F - 64.4 °F 88% 30.03 in 10.0 mi SSE 4.6 mph - N/A   Clear
6:55 AM 68.0 °F - 64.4 °F 88% 30.03 in 10.0 mi SSE 4.6 mph - N/A   Clear
7:15 AM 68.0 °F - 64.4 °F 88% 30.03 in 10.0 mi South 4.6 mph - N/A   Clear
7:35 AM 68.0 °F - 64.4 °F 88% 30.04 in 10.0 mi South 4.6 mph - N/A   Clear
7:55 AM 69.8 °F - 64.4 °F 83% 30.04 in 10.0 mi South 8.1 mph - N/A   Clear
8:15 AM 71.6 °F - 64.4 °F 78% 30.05 in 10.0 mi South 8.1 mph - N/A   Clear
8:35 AM 71.6 °F - 64.4 °F 78% 30.05 in 10.0 mi South 9.2 mph - N/A   Clear
8:55 AM 75.2 °F - 66.2 °F 73% 30.05 in 10.0 mi South 8.1 mph - N/A   Clear
9:15 AM 77.0 °F - 66.2 °F 69% 30.05 in 10.0 mi South 10.4 mph - N/A   Clear
9:35 AM 77.0 °F - 66.2 °F 69% 30.04 in 10.0 mi South 11.5 mph 19.6 mph N/A   Clear
9:55 AM 77.0 °F - 66.2 °F 69% 30.04 in 10.0 mi South 11.5 mph 16.1 mph N/A   Clear
10:15 AM 78.8 °F - 66.2 °F 65% 30.04 in 10.0 mi South 12.7 mph 16.1 mph N/A   Clear
10:35 AM 78.8 °F - 66.2 °F 65% 30.04 in 10.0 mi South 13.8 mph - N/A   Clear
10:55 AM 80.6 °F 82.7 °F 66.2 °F 61% 30.04 in 10.0 mi South 15.0 mph - N/A   Clear
11:15 AM 80.6 °F 83.2 °F 68.0 °F 65% 30.03 in 10.0 mi South 16.1 mph - N/A   Clear
11:35 AM 82.4 °F 85.4 °F 68.0 °F 62% 30.03 in 10.0 mi South 13.8 mph 18.4 mph N/A   Clear
11:55 AM 82.4 °F 84.6 °F 66.2 °F 58% 30.03 in 10.0 mi South 13.8 mph 21.9 mph N/A   Clear
12:15 PM 84.2 °F 86.6 °F 66.2 °F 55% 30.03 in 10.0 mi South 13.8 mph 19.6 mph N/A   Clear
12:35 PM 82.4 °F 85.4 °F 68.0 °F 62% 30.02 in 10.0 mi South 12.7 mph - N/A   Clear
12:55 PM 84.2 °F 87.3 °F 68.0 °F 58% 30.01 in 10.0 mi South 12.7 mph - N/A   Clear
1:15 PM 86.0 °F 89.4 °F 68.0 °F 55% 30.00 in 10.0 mi SSW 15.0 mph 19.6 mph N/A   Clear
1:35 PM 86.0 °F 89.4 °F 68.0 °F 55% 30.00 in 10.0 mi South 12.7 mph 21.9 mph N/A   Clear
1:55 PM 86.0 °F 89.4 °F 68.0 °F 55% 30.00 in 10.0 mi South 11.5 mph 18.4 mph N/A   Clear
2:15 PM 86.0 °F 89.4 °F 68.0 °F 55% 29.99 in 10.0 mi South 15.0 mph 18.4 mph N/A   Clear
2:35 PM 86.0 °F 89.4 °F 68.0 °F 55% 29.98 in 10.0 mi SSE 13.8 mph 18.4 mph N/A   Clear
2:55 PM 86.0 °F 89.4 °F 68.0 °F 55% 29.98 in 10.0 mi South 12.7 mph - N/A   Clear
3:15 PM 87.8 °F 91.4 °F 68.0 °F 52% 29.98 in 10.0 mi South 12.7 mph 19.6 mph N/A   Clear
3:35 PM 87.8 °F 91.4 °F 68.0 °F 52% 29.96 in 10.0 mi SSE 15.0 mph 18.4 mph N/A   Clear
3:55 PM 87.8 °F 90.4 °F 66.2 °F 49% 29.96 in 10.0 mi South 15.0 mph 18.4 mph N/A   Clear
4:15 PM 87.8 °F 91.4 °F 68.0 °F 52% 29.95 in 10.0 mi South 15.0 mph - N/A   Clear
4:35 PM 87.8 °F 91.4 °F 68.0 °F 52% 29.95 in 10.0 mi South 15.0 mph 19.6 mph N/A   Clear
4:55 PM 86.0 °F 89.4 °F 68.0 °F 55% 29.95 in 10.0 mi South 11.5 mph - N/A   Clear
5:15 PM 86.0 °F 89.4 °F 68.0 °F 55% 29.95 in 10.0 mi South 11.5 mph - N/A   Clear
5:35 PM 84.2 °F 87.3 °F 68.0 °F 58% 29.95 in 10.0 mi South 8.1 mph - N/A   Clear
5:55 PM 82.4 °F 85.4 °F 68.0 °F 62% 29.95 in 10.0 mi South 9.2 mph - N/A   Clear
6:15 PM 86.0 °F 89.4 °F 68.0 °F 55% 29.94 in 10.0 mi South 10.4 mph - N/A   Clear
6:35 PM 86.0 °F 89.4 °F 68.0 °F 55% 29.93 in 10.0 mi South 12.7 mph - N/A   Clear
6:55 PM 84.2 °F 87.3 °F 68.0 °F 58% 29.92 in 10.0 mi SSE 11.5 mph - N/A   Clear
7:15 PM 82.4 °F 85.4 °F 68.0 °F 62% 29.91 in 10.0 mi SSE 10.4 mph - N/A   Clear
7:35 PM 80.6 °F 83.2 °F 68.0 °F 65% 29.91 in 10.0 mi SSE 9.2 mph - N/A   Clear
7:55 PM 80.6 °F 83.2 °F 68.0 °F 65% 29.91 in 10.0 mi South 8.1 mph - N/A   Clear
8:15 PM 78.8 °F - 69.8 °F 74% 29.91 in 10.0 mi South 4.6 mph - N/A   Clear
8:35 PM 78.8 °F - 69.8 °F 74% 29.93 in 10.0 mi South 6.9 mph - N/A   Clear
8:55 PM 78.8 °F - 68.0 °F 69% 29.93 in 10.0 mi South 8.1 mph - N/A   Clear
9:15 PM 78.8 °F - 68.0 °F 69% 29.93 in 10.0 mi South 8.1 mph - N/A   Clear
9:35 PM 78.8 °F - 68.0 °F 69% 29.93 in 10.0 mi South 8.1 mph - N/A   Clear
9:55 PM 77.0 °F - 68.0 °F 74% 29.94 in 10.0 mi South 8.1 mph - N/A   Clear
10:15 PM 77.0 °F - 68.0 °F 74% 29.94 in 10.0 mi South 8.1 mph - N/A   Clear
10:35 PM 77.0 °F - 68.0 °F 74% 29.94 in 10.0 mi SSE 9.2 mph - N/A   Clear
10:55 PM 77.0 °F - 68.0 °F 74% 29.94 in 10.0 mi SSE 9.2 mph - N/A   Clear
11:15 PM 77.0 °F - 68.0 °F 74% 29.93 in 10.0 mi SSE 9.2 mph - N/A   Clear
11:35 PM 75.2 °F - 68.0 °F 78% 29.93 in 10.0 mi SSE 10.4 mph - N/A   Clear